Wind_Speed
22 21 21 20 20 20 20 20 20 21 21 20 20 20 20 20 20 19 18 18 18 18 19 20 21 21 21 23 24 23 19 15 13 11 11 12 11 12 11 8 6 4 3 2 1 3 4 4 4 4 5 6 7 8 8 10 10 9 8 10 11 11 12 12 12 5 6 7 1 4 8 6 5 10 15 19 25 30 30 32 30 28 30 27 19 12 10 10
22 22 21 20 20 20 21 21 21 21 21 21 21 21 22 21 20 19 18 18 18 18 20 20 21 20 21 23 23 21 17 15 16 13 8 9 9 11 10 5 3 3 2 2 2 2 4 4 4 4 7 7 6 7 8 10 12 11 7 9 11 11 11 11 9 2 5 6 6 5 8 8 6 6 7 11 21 27 26 30 33 30 31 26 15 14 16 13
22 22 21 20 20 20 21 21 21 21 22 22 22 22 22 21 21 20 19 19 19 19 20 20 20 20 20 22 22 18 16 17 15 6 6 11 12 10 6 3 2 3 3 3 3 2 3 3 3 5 7 8 7 7 8 9 11 12 10 9 10 10 10 9 7 5 7 9 10 8 8 9 9 8 8 7 15 23 23 25 30 30 31 27 16 16 21 18
22 22 21 21 20 20 20 20 21 21 22 22 22 22 22 22 21 20 20 20 20 19 19 19 19 19 19 21 21 15 16 17 7 6 10 11 11 7 4 2 3 3 3 3 3 2 2 3 3 5 7 8 7 7 9 9 9 11 10 10 9 4 5 6 7 8 9 11 12 12 11 10 9 9 9 9 11 16 23 27 29 28 27 27 21 19 24 25
23 22 22 22 21 20 19 19 20 21 22 22 23 23 22 22 20 20 20 20 19 19 18 18 18 18 19 20 18 14 14 10 4 9 10 11 8 6 3 3 3 4 3 3 2 2 2 3 3 5 8 7 7 8 9 11 8 8 10 12 11 5 5 8 7 8 9 11 13 13 13 12 11 12 11 11 11 13 17 15 16 14 12 16 21 25 27 29
24 23 23 23 22 21 20 19 19 21 22 23 23 23 23 21 20 20 19 19 18 18 17 17 17 17 17 18 16 12 9 5 4 7 10 10 9 6 5 7 5 5 4 3 2 3 3 3 5 6 7 6 6 7 6 9 8 7 9 10 10 7 7 9 9 8 9 11 13 13 16 17 16 16 15 15 15 16 15 12 12 11 10 10 11 23 27 27
25 24 24 24 23 22 22 20 20 21 23 23 24 24 23 20 19 19 19 18 17 17 17 16 16 15 16 16 13 9 9 8 4 10 12 11 10 7 10 7 7 6 5 4 4 4 3 4 6 5 6 5 5 6 4 6 8 8 8 7 7 7 9 11 11 10 9 11 14 15 17 20 21 18 16 18 17 18 19 18 16 14 11 9 8 17 24 25
26 25 25 24 24 23 23 22 21 22 23 23 25 24 22 19 19 19 18 18 17 16 15 15 15 14 14 12 11 10 10 8 5 8 11 12 11 10 8 4 8 8 6 6 4 4 4 5 5 3 6 3 2 4 3 5 9 11 10 7 6 8 10 11 11 12 12 13 14 16 18 21 25 24 21 23 20 20 22 21 19 16 13 12 11 13 19 21
26 26 25 25 24 24 24 23 23 23 24 24 25 24 21 18 18 19 18 17 16 14 14 14 14 13 11 8 9 9 4 5 5 4 6 9 9 7 3 3 7 8 8 8 5 4 4 4 3 2 5 2 1 4 3 5 5 5 7 7 7 10 11 11 12 13 13 14 13 15 18 20 25 25 24 29 27 23 24 21 18 15 12 11 13 14 17 20
27 26 26 26 25 25 25 25 24 24 25 25 24 22 19 18 19 18 16 15 13 13 13 12 13 12 8 6 7 6 2 4 5 4 6 6 6 5 4 5 7 8 9 8 7 6 4 2 2 2 5 4 4 4 4 5 3 2 7 9 11 13 13 13 13 13 13 14 15 16 17 20 23 20 19 27 28 23 22 20 17 14 11 9 12 15 16 19
27 26 26 26 26 26 26 26 26 26 25 23 21 19 17 18 17 15 14 13 12 12 12 12 13 10 5 6 9 6 4 4 4 6 8 8 7 7 9 11 10 8 9 9 8 7 4 2 2 3 4 2 3 4 5 6 5 6 9 11 12 14 14 14 13 14 13 12 15 17 18 21 22 20 19 24 27 25 22 21 20 18 15 12 11 15 16 18
28 27 27 27 27 27 27 27 26 25 23 20 18 16 16 16 15 14 12 11 12 12 11 11 12 8 4 8 12 8 7 7 7 10 13 13 11 7 7 12 13 11 10 9 9 7 6 3 3 7 4 2 3 3 2 2 5 9 9 10 11 12 13 14 13 13 12 11 12 13 14 18 20 21 24 26 28 31 30 26 24 21 18 15 13 14 17 16
28 27 27 27 27 27 27 26 25 23 20 17 16 15 16 16 14 13 11 11 11 8 8 11 9 4 5 9 10 7 6 5 4 4 9 9 5 1 2 5 8 10 10 9 7 6 7 5 5 7 5 4 6 3 4 5 8 9 9 9 8 10 10 9 10 11 11 11 11 11 11 13 16 20 24 27 28 31 35 33 27 23 18 15 14 14 17 16
28 28 27 27 28 27 27 25 23 20 17 15 15 16 17 16 14 12 12 12 8 5 10 13 6 3 6 9 7 4 1 2 5 6 2 3 6 4 4 4 2 4 7 9 7 5 6 6 6 8 7 7 7 6 7 9 8 7 8 8 7 8 5 6 7 7 9 9 11 12 11 11 12 15 19 24 28 30 36 37 31 26 21 17 15 16 16 17
29 28 27 28 28 27 25 23 21 18 16 16 15 17 17 15 13 13 13 9 6 10 14 8 2 4 6 9 4 1 2 4 4 4 2 2 4 3 2 1 1 1 4 7 7 7 7 7 8 9 7 6 7 8 8 7 7 6 7 7 7 7 4 6 7 7 9 8 11 13 10 10 12 14 17 19 22 28 34 38 36 30 25 20 17 17 17 17
29 28 28 28 28 25 23 21 19 16 17 17 16 18 16 14 16 14 9 7 9 12 8 2 3 3 6 5 2 2 1 1 3 6 5 4 4 5 4 3 2 3 3 5 6 7 7 8 9 9 7 6 6 7 6 6 7 6 7 8 8 7 6 4 4 7 9 8 10 13 10 10 11 12 17 20 22 25 27 35 40 35 27 22 19 18 19 19
29 28 28 29 27 23 21 19 17 16 17 17 18 18 14 16 15 8 7 9 9 6 2 1 1 3 4 1 3 3 2 5 9 8 8 8 7 8 6 5 4 4 4 5 7 7 8 10 9 8 8 8 6 5 6 7 7 6 6 6 8 9 8 6 3 5 7 8 9 12 12 13 14 13 16 19 23 24 24 29 38 37 29 23 20 19 20 22
29 28 27 28 24 21 19 17 16 17 18 17 20 17 12 17 13 4 8 8 4 3 1 1 1 3 1 2 4 6 8 11 11 8 9 10 11 11 9 7 5 6 7 7 9 10 10 10 8 6 7 7 6 6 7 7 6 6 5 5 7 9 9 9 6 2 3 7 10 12 13 15 17 16 18 21 21 22 23 26 33 36 31 25 21 20 21 22
30 28 27 26 22 19 17 16 15 17 18 17 21 16 12 19 12 2 9 9 3 3 1 1 2 4 3 4 8 10 11 12 8 5 6 7 10 11 10 9 8 9 10 8 9 12 10 8 7 7 7 8 9 9 10 10 9 9 9 9 10 10 10 10 8 5 6 10 12 13 14 15 17 17 18 22 23 23 23 24 29 34 32 28 24 23 23 23
30 28 27 24 19 17 16 15 15 18 18 18 21 15 10 16 9 3 13 11 4 5 5 5 6 8 8 8 10 11 12 10 6 4 2 1 3 6 9 10 10 11 11 10 8 9 9 9 8 9 9 10 11 11 11 12 11 11 11 11 12 12 12 11 9 7 6 9 11 13 15 15 18 18 16 20 23 23 23 23 26 32 33 30 26 23 24 25
29 28 26 22 17 16 16 14 14 17 17 17 19 13 9 12 7 6 15 10 4 6 9 7 8 9 8 7 9 12 10 8 9 5 3 1 1 6 8 10 11 9 10 12 10 5 6 10 11 12 12 12 12 13 13 13 12 13 11 11 12 12 11 11 10 8 7 9 11 14 15 16 18 18 17 19 20 21 23 23 24 30 31 28 25 23 24 24
29 27 25 20 14 15 15 12 13 16 16 13 13 11 9 9 6 6 9 8 8 9 8 7 8 7 6 7 8 12 10 9 10 5 4 4 5 8 6 8 10 10 9 11 10 6 7 11 14 14 12 13 14 14 15 15 15 13 12 11 12 10 10 11 10 9 8 8 9 13 14 15 18 19 19 19 19 21 25 26 26 29 30 28 26 23 23 23
29 27 24 18 12 14 14 11 13 15 13 11 9 10 8 6 7 6 5 9 11 7 6 5 6 6 5 6 8 12 9 7 10 6 2 4 7 8 8 8 10 11 10 10 10 10 9 9 10 11 11 13 14 14 15 14 13 12 11 11 12 11 11 10 8 8 7 8 11 14 14 13 15 18 19 20 22 23 26 28 29 31 31 30 27 24 24 23
28 27 23 16 11 13 13 10 13 14 12 11 9 9 8 7 7 6 6 8 7 4 5 3 3 4 4 6 8 10 9 8 11 8 1 4 6 5 7 10 10 11 11 12 14 14 13 11 10 10 11 14 15 14 14 12 10 12 13 13 13 14 14 12 10 11 11 12 14 15 13 11 14 18 17 18 22 25 26 28 29 32 32 30 29 27 25 24
29 27 22 14 9 12 12 8 12 13 11 9 8 10 11 9 7 6 6 5 4 2 4 2 2 2 5 7 7 10 11 9 9 7 4 7 7 6 8 9 9 10 11 14 15 13 14 14 14 14 13 15 15 14 14 12 9 12 15 16 17 17 17 16 15 13 11 11 11 11 11 9 12 18 18 15 18 22 24 25 26 30 32 30 29 29 27 25
29 26 20 12 8 11 10 6 9 13 10 6 10 14 13 11 9 5 4 4 3 2 2 3 2 3 8 7 6 12 12 6 6 7 7 8 9 10 10 8 8 10 12 11 10 9 10 11 11 13 14 14 15 14 14 12 10 11 13 15 18 18 17 17 16 13 10 10 9 9 10 10 10 14 16 17 19 22 23 23 24 28 30 30 30 29 29 27
29 26 17 9 7 10 7 5 10 11 7 9 13 15 15 13 9 3 4 4 2 3 4 3 4 7 10 8 10 11 7 8 11 5 3 5 7 8 9 9 8 10 9 7 7 5 5 9 10 10 13 14 13 12 12 14 12 11 12 12 14 15 16 17 15 12 11 12 12 12 12 11 10 11 14 16 19 22 23 23 23 25 29 31 31 30 30 29
28 24 13 6 7 8 7 8 11 8 7 13 15 16 17 13 5 2 4 3 1 3 4 2 4 8 9 11 10 7 7 11 9 1 1 7 6 6 10 11 10 10 6 5 8 5 3 9 12 12 12 11 12 11 12 14 13 12 12 10 12 14 15 15 13 12 11 12 12 13 13 12 11 10 12 15 17 19 23 24 23 24 29 31 30 30 31 30
27 19 8 5 7 8 8 9 10 9 11 16 16 17 16 7 1 3 5 3 2 2 3 3 6 8 12 14 9 4 7 8 6 5 8 9 7 7 9 9 10 12 9 8 12 11 9 11 9 10 11 10 12 12 10 13 12 10 11 12 12 13 14 13 11 10 11 12 12 14 14 12 10 9 10 14 17 17 18 21 20 22 28 30 29 29 31 31
24 14 5 5 7 9 10 10 11 13 14 17 17 16 10 2 3 4 3 2 2 4 5 5 8 12 14 13 9 8 9 9 9 10 9 7 6 8 8 7 7 9 11 11 13 15 16 12 5 6 11 11 11 10 8 11 11 9 9 11 11 11 11 11 10 10 9 11 14 18 18 15 11 8 9 12 15 16 15 15 18 20 25 30 29 29 32 32
20 10 4 5 7 9 11 10 12 15 16 18 19 13 4 4 4 4 3 3 3 6 7 7 10 15 14 12 10 10 11 11 10 9 8 6 5 7 6 5 3 5 8 9 10 11 14 12 7 9 14 13 11 10 9 10 11 10 9 9 9 8 9 9 9 9 9 11 13 17 20 18 13 8 10 14 14 17 16 15 18 20 23 28 30 29 32 32
17 7 4 5 7 9 11 10 13 16 16 19 18 7 5 4 2 2 5 5 3 5 9 10 13 15 15 13 9 10 12 11 9 9 8 7 6 5 5 4 3 4 5 4 5 6 8 9 10 11 13 14 12 9 8 9 10 10 9 8 8 7 7 8 9 8 9 12 13 15 17 16 13 10 15 20 16 13 14 13 16 20 22 27 29 29 31 32
14 6 4 5 7 10 12 13 15 16 17 19 14 5 5 4 3 3 6 6 4 8 10 13 15 15 14 12 8 11 11 9 9 10 9 8 8 6 5 5 5 5 5 6 7 6 5 5 8 9 9 11 12 8 6 7 8 10 9 8 9 7 7 9 8 8 10 12 14 16 15 11 10 12 18 24 21 15 14 14 15 19 25 28 28 29 30 30
12 5 4 6 8 11 13 16 16 16 17 16 9 6 4 4 4 5 7 6 8 11 12 14 17 15 11 8 7 9 8 7 10 11 10 8 6 6 5 3 3 5 5 6 6 4 5 2 4 5 3 6 11 11 8 6 5 9 10 8 9 8 7 7 7 7 8 8 10 12 11 8 8 10 16 22 21 18 17 18 16 19 26 28 27 28 29 28
11 5 4 6 8 11 16 18 15 15 17 12 7 5 4 4 4 6 6 7 9 11 14 16 15 11 9 7 3 4 3 5 11 12 10 8 7 7 5 1 2 4 3 4 3 2 7 4 2 3 2 4 9 10 9 9 5 7 8 9 9 8 7 7 8 8 7 7 7 7 7 7 7 9 13 16 18 18 18 18 17 18 26 29 27 28 28 28
10 5 4 7 10 14 18 16 13 13 14 10 6 3 4 3 5 6 6 8 9 12 15 15 10 7 8 7 3 3 1 4 12 12 7 9 9 5 4 3 3 3 4 4 3 3 6 3 2 3 6 7 8 7 9 10 5 4 8 10 9 9 8 8 8 9 8 7 6 6 9 9 9 8 8 10 13 15 16 16 15 18 25 28 27 27 28 28
10 4 3 8 13 15 15 13 12 12 10 8 4 3 3 3 5 6 7 10 11 11 11 9 6 6 8 8 7 10 9 8 11 9 7 10 7 3 5 4 4 3 4 4 4 3 5 5 2 5 6 5 6 8 9 11 8 4 6 7 7 8 7 6 7 6 7 8 6 8 12 11 8 5 4 9 14 15 14 13 14 18 23 25 25 27 27 27
12 3 1 10 15 14 13 12 12 10 7 5 2 1 1 4 5 7 9 11 11 9 8 6 3 5 8 9 9 13 14 11 10 10 9 7 3 2 5 3 1 3 4 4 5 2 4 6 2 2 3 2 4 7 6 10 13 9 4 3 4 5 6 6 5 5 5 7 6 10 13 8 5 2 1 6 11 13 12 11 13 17 19 20 25 27 26 26
12 2 1 14 19 13 12 13 11 8 5 3 3 2 2 4 6 9 10 11 9 7 7 6 5 5 8 10 11 12 10 9 12 11 6 3 3 2 2 1 1 4 6 7 6 3 3 4 1 3 3 2 3 6 6 6 10 10 7 5 5 4 3 4 4 4 5 6 5 8 11 5 3 2 2 3 5 6 8 8 10 15 17 19 24 26 26 25
10 1 1 18 20 12 11 11 8 6 2 2 3 3 5 6 7 10 10 9 7 6 6 8 8 8 9 11 10 8 7 10 12 9 4 4 6 2 3 3 1 5 8 9 8 6 4 3 2 1 3 4 4 5 4 3 5 7 7 7 7 4 1 3 5 6 6 6 5 6 8 3 3 2 3 4 2 1 4 5 6 9 14 18 22 23 24 24
9 0 5 19 18 11 9 7 6 4 2 3 2 3 7 8 8 11 9 7 6 6 7 9 10 9 10 11 8 5 6 10 10 7 5 5 6 4 3 5 2 5 7 6 8 6 4 3 5 5 3 3 2 2 1 2 3 4 5 6 6 5 4 5 7 7 7 7 7 5 4 2 3 2 4 5 4 4 1 2 3 6 10 13 16 19 21 22
9 2 8 18 16 12 8 2 3 3 1 4 5 4 7 8 8 9 9 7 6 5 6 8 9 9 9 8 6 4 6 9 8 6 7 7 7 7 2 6 3 8 7 6 5 5 3 3 5 5 4 1 1 2 3 3 3 3 5 6 6 5 5 6 7 4 4 8 10 8 2 2 1 2 4 6 6 5 2 0 1 4 7 9 11 14 17 18
7 3 9 17 15 11 6 1 3 3 2 5 6 5 5 6 8 9 9 7 6 6 7 7 8 9 8 6 5 3 5 7 7 6 9 10 9 9 2 4 5 7 6 5 4 3 2 3 4 5 4 3 3 3 3 4 4 4 7 7 7 7 6 7 8 5 7 9 9 6 4 3 1 3 5 7 8 4 1 0 0 2 5 7 10 12 14 16
5 3 7 15 17 12 5 3 4 4 5 7 6 5 5 4 6 8 9 7 6 7 8 8 9 9 8 8 7 5 5 5 5 6 9 9 10 13 10 7 7 3 4 3 2 1 2 3 4 4 3 3 4 3 3 5 5 5 6 7 9 10 10 10 9 7 8 10 8 4 4 4 2 4 6 7 5 1 1 1 1 1 3 6 9 11 13 15
6 2 4 12 18 17 9 4 5 4 7 9 6 6 7 5 4 7 10 9 7 7 9 10 11 11 10 10 10 9 7 5 5 7 8 8 11 13 14 15 11 3 6 8 7 6 5 4 4 5 4 2 2 2 1 2 3 3 4 7 10 13 14 11 7 7 7 8 9 4 2 5 4 2 4 4 1 3 2 1 1 2 3 5 8 10 12 15
4 3 5 7 10 14 11 7 7 5 6 9 6 6 9 9 7 8 8 6 4 8 12 11 11 11 10 11 13 11 7 6 7 8 9 10 10 11 15 18 10 2 6 12 11 7 4 5 6 7 7 6 5 5 3 1 3 4 6 9 11 14 15 11 7 6 4 6 8 3 2 3 4 4 4 3 3 3 2 1 2 3 4 5 7 10 12 14
3 2 6 5 4 7 7 7 10 7 6 8 6 5 10 10 9 8 6 4 6 11 12 8 7 10 12 13 11 7 7 10 9 9 10 11 11 13 16 13 5 2 6 8 6 5 4 5 6 7 8 8 6 6 5 3 5 7 8 9 9 12 14 13 11 6 4 5 5 1 2 3 3 4 4 4 2 2 2 3 4 4 5 6 7 10 13 15
5 2 3 4 3 4 5 6 10 9 7 8 6 6 10 11 10 10 7 6 10 12 8 6 9 14 17 15 9 6 9 12 9 7 10 11 12 13 11 6 2 3 7 7 3 4 5 5 5 7 8 7 6 6 5 5 7 8 9 9 8 9 10 10 10 7 6 6 7 5 5 3 3 4 5 5 3 1 3 5 6 5 7 8 9 12 15 16
6 2 3 4 2 3 5 7 9 8 6 7 5 5 10 12 12 11 7 7 10 10 8 9 14 18 19 17 11 6 6 7 8 9 11 12 13 12 9 4 1 2 6 7 4 3 4 4 4 7 9 7 4 4 4 6 7 8 9 9 8 8 9 10 9 8 9 11 10 13 11 2 4 5 6 6 3 4 6 6 7 6 8 11 12 14 17 18
6 3 4 4 2 2 4 5 7 6 4 6 5 6 10 11 12 14 11 8 9 10 10 13 17 20 20 18 14 9 7 6 9 12 13 13 11 8 6 4 2 4 6 6 5 4 4 3 4 7 8 4 1 2 4 6 6 8 9 8 7 8 8 8 8 8 8 9 11 13 8 2 7 7 7 5 7 10 8 8 7 6 8 13 15 16 18 19
5 3 3 4 3 2 4 4 5 4 3 5 6 7 9 10 12 15 14 9 9 10 12 15 18 19 18 18 17 17 17 15 15 18 18 15 12 9 7 6 7 8 6 5 5 6 5 4 4 5 5 2 1 2 4 4 6 8 8 7 8 7 6 6 7 7 6 8 10 5 3 6 7 7 8 7 11 13 10 9 9 8 10 12 15 17 18 19
5 3 4 4 3 2 4 4 4 3 3 5 7 9 9 10 12 13 10 6 7 10 11 14 17 16 15 18 20 21 25 26 26 26 22 16 14 14 13 13 13 10 5 5 5 4 4 5 4 4 4 3 2 2 3 4 4 4 5 9 9 8 9 9 8 9 9 8 6 5 5 6 7 7 6 8 10 13 12 12 11 10 12 12 13 16 17 18
Wind_Direction
354 352 351 352 352 349 346 343 340 339 336 335 333 332 331 330 329 325 322 318 317 318 318 319 319 322 326 327 329 331 334 330 323 318 300 280 250 227 217 207 208 220 225 217 240 258 257 237 239 253 235 218 220 218 206 208 209 209 222 228 233 235 232 238 239 264 299 260 210 25 349 326 242 225 226 222 223 225 228 231 229 226 231 236 233 224 221 207
353 351 351 350 350 347 344 341 339 337 335 334 333 331 331 331 330 327 325 320 318 318 316 318 320 326 328 326 333 333 334 332 323 316 281 240 209 192 189 188 202 227 216 172 211 241 237 235 241 245 230 220 212 203 201 203 206 214 226 229 234 238 238 241 242 342 340 305 331 337 352 342 304 311 285 235 221 220 225 231 231 229 231 230 209 209 232 226
351 350 348 347 347 345 341 339 338 336 334 333 332 331 330 330 330 327 325 319 317 317 317 321 324 328 327 327 335 336 338 330 318 298 208 190 172 166 172 187 225 228 200 188 217 227 236 241 236 237 234 229 212 200 210 198 200 220 229 234 236 244 255 251 253 300 320 315 314 315 338 322 294 308 313 271 231 223 223 226 231 232 230 225 196 201 228 233
351 349 347 345 344 342 339 337 337 335 333 332 331 330 329 329 327 324 321 317 315 316 321 324 325 327 326 329 334 341 340 321 297 175 180 170 162 168 179 221 246 230 200 210 233 234 233 229 229 233 235 233 208 205 219 197 197 223 224 242 247 263 281 259 267 289 311 315 305 308 312 296 286 291 284 269 249 227 223 225 231 236 237 231 207 202 225 231
351 349 347 345 343 341 337 335 335 334 333 332 331 330 331 328 324 321 317 315 315 318 323 323 324 325 325 330 334 345 338 311 158 162 183 168 174 183 200 272 247 208 198 218 236 234 225 214 223 223 231 234 201 207 221 204 214 241 233 251 265 296 280 254 277 302 314 306 291 291 285 282 288 281 266 257 250 229 228 239 249 259 275 258 221 206 218 224
350 349 346 344 343 341 339 336 334 333 332 332 330 330 331 327 322 319 316 316 319 321 323 322 323 323 325 329 331 340 327 305 129 183 196 185 199 203 263 279 233 199 192 212 216 222 225 220 231 228 232 235 210 217 217 201 219 253 242 244 258 275 269 265 283 301 312 296 278 273 274 283 284 271 260 257 255 251 265 295 310 313 320 308 240 208 209 213
350 349 346 345 343 341 340 337 334 333 331 331 329 328 328 324 319 317 315 318 322 323 322 322 323 320 322 329 331 318 280 285 278 229 223 215 224 259 281 264 219 203 191 214 214 222 233 233 241 240 241 238 220 223 205 208 225 246 251 240 246 263 265 271 280 287 295 283 274 274 274 275 271 269 266 260 259 265 278 287 294 301 291 295 275 218 211 211
351 349 347 345 343 342 340 337 335 333 331 329 326 326 326 321 316 316 317 319 322 322 322 324 322 317 322 335 335 307 269 265 267 240 235 231 246 271 275 245 224 209 201 223 217 231 246 237 243 239 246 248 203 219 206 235 231 232 251 254 251 261 264 269 274 276 277 273 271 269 265 263 263 269 273 266 266 268 273 278 281 288 278 265 264 235 221 216
351 350 348 346 344 342 340 338 335 333 331 328 326 326 325 318 315 317 318 320 323 322 323 323 318 313 321 334 323 308 271 243 260 250 227 227 242 248 240 253 233 211 212 226 219 235 247 232 229 247 272 292 246 240 227 243 233 221 255 271 268 267 269 270 268 267 268 266 265 262 260 258 260 267 270 264 265 268 268 271 270 273 274 260 252 243 230 223
352 350 348 346 344 342 341 338 336 334 330 328 328 328 324 317 317 320 323 326 326 324 321 318 311 306 308 309 299 296 302 283 261 226 214 209 207 217 250 255 230 218 222 222 219 228 249 245 210 269 283 273 248 247 227 247 303 346 277 278 275 272 270 265 262 261 260 260 256 257 261 259 257 257 259 256 256 260 259 259 259 256 261 261 251 242 231 229
352 349 347 345 344 342 341 339 338 336 332 332 333 330 325 323 325 329 333 331 327 323 318 310 301 292 279 271 268 268 293 294 242 215 215 210 218 246 260 245 229 222 222 224 224 223 241 248 226 253 261 251 237 233 224 249 302 301 282 281 273 268 265 256 254 254 253 255 250 254 262 259 253 247 248 250 251 256 256 255 256 252 254 257 251 243 232 228
351 348 347 345 344 342 341 341 341 340 339 340 339 337 336 335 337 338 338 332 325 323 318 310 295 275 245 252 253 264 287 282 268 248 237 239 253 267 251 236 230 225 224 229 229 227 237 237 237 249 264 320 267 246 226 247 280 280 277 281 273 267 261 246 241 242 245 249 245 251 262 254 245 243 247 247 249 255 257 254 254 254 251 250 245 241 235 226
350 348 347 344 343 343 343 343 345 346 347 350 349 347 346 341 339 342 342 329 327 335 335 325 307 253 213 251 268 297 305 289 308 281 248 242 233 184 155 205 224 226 227 229 232 228 228 229 233 251 279 280 263 299 321 270 263 271 267 269 274 271 261 231 219 228 235 245 238 238 256 252 243 243 242 241 241 248 253 250 248 249 243 241 239 235 235 227
350 348 346 344 344 345 345 347 349 350 353 358 355 349 346 339 340 348 335 324 332 337 325 322 311 180 213 261 294 337 346 103 65 54 56 141 134 130 113 102 161 207 214 219 228 224 219 227 233 251 261 253 265 297 290 260 246 259 265 261 255 263 255 160 171 218 235 237 222 225 249 259 256 251 239 235 232 234 244 246 242 241 238 237 236 231 233 229
350 349 346 345 345 346 348 349 351 354 355 358 355 347 342 337 341 340 325 324 335 319 323 328 172 173 252 277 314 17 104 104 70 24 9 141 151 187 161 82 9 200 204 199 210 218 215 217 224 246 247 231 256 270 266 252 234 238 258 259 238 244 243 174 185 224 244 240 217 223 250 261 258 256 245 238 233 227 234 241 240 238 236 236 235 229 229 229
351 348 346 346 346 347 350 350 352 356 354 355 353 346 343 342 339 334 328 333 327 325 342 68 166 232 272 289 340 331 73 118 301 307 285 243 220 228 236 270 258 229 223 195 199 207 206 215 227 246 249 230 241 252 260 258 241 220 233 262 258 252 265 242 193 206 239 252 229 229 249 264 258 253 244 238 237 232 230 236 238 237 234 234 234 228 226 228
351 348 346 346 346 347 350 350 352 356 353 353 354 351 348 346 343 343 348 337 332 352 60 125 210 236 252 336 1 328 322 291 291 286 266 254 243 241 248 248 227 209 205 195 201 201 201 216 226 237 237 234 243 251 257 254 246 224 217 252 267 260 265 264 219 193 232 257 249 242 249 260 262 261 255 241 237 237 232 234 236 235 233 232 231 226 224 227
351 348 346 346 346 347 350 351 351 354 354 355 357 356 357 358 359 11 353 342 348 16 79 101 178 224 217 48 343 321 311 302 299 290 271 257 246 245 242 238 225 209 211 209 204 201 204 212 222 236 228 222 230 234 242 256 272 273 255 263 272 263 258 258 251 223 262 274 267 258 254 258 260 257 255 250 244 240 234 234 237 236 233 227 224 223 224 226
351 348 346 346 346 347 350 351 350 354 355 357 2 3 9 4 359 6 353 345 327 327 4 75 268 293 334 330 324 324 320 318 318 312 289 257 243 242 236 233 231 227 238 238 206 200 209 216 219 235 236 224 227 232 247 270 285 287 280 277 278 272 264 264 268 278 290 282 270 263 262 262 261 255 250 249 247 243 239 235 237 238 232 224 222 223 225 226
350 347 346 346 346 347 349 350 351 356 355 1 9 15 15 359 348 350 346 327 280 310 314 297 282 289 299 309 322 331 337 333 319 300 285 276 210 229 227 222 228 231 241 253 231 207 219 238 236 237 243 237 238 246 257 271 276 275 275 271 270 269 269 269 268 266 268 274 271 267 268 265 262 258 253 249 246 242 240 236 235 237 232 224 222 222 221 223
349 346 346 345 346 347 348 349 351 357 359 5 16 29 25 3 1 344 336 317 277 309 299 288 284 277 288 320 328 333 336 314 298 264 223 314 234 237 228 213 230 237 233 246 247 213 212 244 251 248 251 248 250 257 259 263 261 261 265 266 265 263 267 270 268 264 261 267 271 270 268 264 261 260 254 250 247 241 237 234 233 236 234 225 219 220 220 220
348 346 344 345 346 345 347 349 353 359 3 10 21 30 24 12 4 334 326 308 297 304 294 294 289 275 300 328 339 344 322 290 301 270 220 284 248 239 236 216 239 252 240 242 243 231 231 248 253 251 253 253 256 259 257 257 255 255 258 262 262 262 269 269 259 254 254 258 269 274 270 263 260 259 254 246 244 243 239 236 233 234 235 228 218 216 218 216
348 344 343 346 346 345 347 349 359 3 6 16 21 18 14 2 348 338 318 298 293 293 284 288 287 277 310 329 343 339 303 286 317 301 244 273 240 239 254 244 250 255 249 243 241 245 247 247 249 248 250 252 253 252 250 252 252 252 252 256 259 261 268 266 257 258 262 268 277 280 276 267 261 258 254 247 246 247 242 237 233 232 234 230 222 217 215 213
347 344 342 345 347 347 347 351 4 4 7 17 14 3 358 350 346 339 320 295 278 282 267 270 305 289 316 329 332 326 295 291 306 295 265 250 240 244 255 255 259 256 253 248 247 252 255 256 259 256 249 250 253 247 244 245 247 247 244 250 260 264 267 271 279 283 281 273 268 269 269 262 254 252 250 246 244 245 241 237 232 230 231 228 224 220 216 212
346 345 342 342 348 349 348 358 5 4 12 18 2 347 346 346 342 330 320 282 234 237 241 260 327 279 323 324 327 325 302 290 287 275 256 242 247 264 260 258 259 259 260 256 256 257 259 264 265 260 250 251 256 250 243 241 245 249 243 243 252 260 265 269 275 278 276 268 254 254 262 259 249 247 246 240 236 234 232 233 230 227 226 223 221 219 215 211
344 344 342 340 347 351 359 6 354 3 17 357 336 343 344 339 333 325 306 259 189 85 281 298 328 317 336 333 321 312 294 294 320 293 259 243 250 260 266 266 248 258 273 273 270 264 265 270 265 263 259 255 256 252 244 240 244 251 243 240 247 256 260 262 266 266 266 271 266 261 266 271 261 249 246 234 226 228 226 226 226 225 223 219 216 214 211 209
344 343 342 342 344 352 9 358 344 2 7 330 332 343 340 331 329 325 275 246 139 20 325 343 340 324 334 335 322 310 300 325 324 297 214 252 262 242 254 269 254 262 281 283 277 270 266 264 254 252 255 253 251 248 238 230 235 249 248 247 252 258 260 258 258 255 258 270 269 262 261 268 266 255 256 242 223 222 223 222 221 219 220 216 213 212 209 207
344 344 344 345 345 353 1 352 353 358 334 333 340 341 335 328 321 260 259 267 64 344 329 349 312 316 324 324 319 297 302 323 316 293 239 285 280 243 253 272 279 283 280 247 263 272 236 250 253 247 243 245 248 247 238 229 234 251 260 266 261 259 262 260 257 255 260 266 261 251 244 252 257 249 256 252 236 225 220 221 217 213 215 213 209 209 207 204
346 348 351 346 345 352 352 352 357 346 331 339 342 336 334 331 252 222 251 294 1 343 350 331 308 322 324 327 335 310 304 316 310 314 301 281 271 261 265 277 285 286 272 242 257 269 260 259 274 265 243 240 248 251 246 240 243 257 269 272 261 255 258 255 254 256 258 257 256 252 242 246 257 245 240 239 233 227 219 217 217 211 210 207 205 204 202 201
349 353 353 345 345 349 351 352 348 341 339 340 338 336 331 278 218 263 282 339 349 345 341 318 321 330 328 331 343 341 331 323 311 303 291 277 259 254 269 278 275 276 270 256 256 264 264 261 281 266 243 246 263 265 256 247 250 262 267 262 254 248 245 243 244 249 254 251 250 249 244 246 252 246 245 238 224 222 220 214 212 209 205 202 201 200 198 199
352 357 345 341 342 345 353 348 336 337 340 337 337 337 301 222 250 295 2 2 306 338 343 326 329 332 331 332 330 335 335 329 325 311 298 298 262 241 255 256 243 258 262 255 251 258 259 247 231 230 229 235 255 255 239 236 243 249 246 245 251 244 234 238 238 236 245 249 248 246 242 242 244 239 245 244 225 214 216 214 207 203 201 198 196 196 195 196
354 356 329 330 335 342 347 339 332 335 337 335 335 323 249 260 291 340 358 335 294 345 347 332 330 328 325 323 327 342 339 329 331 324 315 312 293 274 266 259 270 274 271 277 279 277 260 237 224 225 221 222 236 239 224 223 227 229 228 231 241 236 226 236 237 231 241 248 251 249 240 234 239 243 247 253 251 226 214 217 207 198 195 193 191 191 191 193
353 345 320 322 329 337 339 338 338 335 334 335 327 278 251 302 4 1 335 338 342 337 331 324 324 321 316 314 327 350 342 324 323 322 316 306 297 294 281 268 270 271 284 307 307 301 276 226 203 218 218 209 222 234 225 218 210 213 219 221 227 231 231 236 238 238 244 249 247 242 238 234 236 238 238 247 257 247 224 222 212 196 190 188 187 186 187 190
350 337 323 324 328 335 337 339 340 334 335 336 307 262 286 330 1 344 327 336 333 324 325 326 321 317 316 316 329 347 339 315 322 321 313 305 299 302 298 252 242 261 275 291 301 300 289 279 169 203 193 179 213 233 247 257 228 216 222 226 232 235 235 241 251 250 249 263 253 231 225 230 232 227 221 225 233 231 219 214 208 196 187 184 182 181 182 186
347 325 322 336 336 333 332 336 339 337 337 329 284 281 345 355 350 345 339 338 328 323 325 322 314 311 325 336 343 357 342 307 324 324 315 316 314 315 323 316 264 272 256 272 303 288 282 301 116 206 232 198 224 228 236 253 244 217 219 226 235 237 237 246 263 272 275 290 279 238 223 229 237 231 214 209 213 212 206 200 197 192 183 180 179 177 179 184
350 327 324 344 336 325 328 335 342 343 334 309 281 333 15 356 344 346 343 335 325 321 321 319 317 321 333 339 330 340 329 294 316 322 324 326 320 316 323 350 352 290 252 265 287 271 274 294 69 265 242 225 246 236 215 227 233 208 214 222 231 238 246 249 255 267 268 268 264 229 224 232 236 230 207 203 204 198 194 189 186 185 179 177 176 175 179 184
357 334 310 336 336 333 339 344 349 346 321 291 299 6 15 2 355 346 339 330 320 317 316 316 335 344 333 330 323 329 332 322 324 331 330 324 328 337 323 358 37 312 276 280 271 262 286 289 303 284 250 199 240 253 222 216 222 214 212 225 230 232 246 255 256 260 250 253 246 209 213 219 209 194 192 204 194 181 185 186 179 180 177 173 171 172 177 181
0 3 319 347 349 351 351 354 356 343 296 277 331 37 350 359 359 347 339 329 316 315 312 305 332 347 330 327 323 325 329 327 331 335 322 312 336 18 328 337 64 295 291 278 261 246 298 293 258 213 245 168 195 237 227 208 219 235 263 281 246 237 239 230 238 262 257 258 245 208 209 207 175 137 124 180 169 162 174 179 174 177 175 168 167 169 172 175
6 59 125 351 351 351 353 360 358 327 279 301 7 31 356 337 338 340 338 330 314 307 309 309 326 331 321 322 319 320 324 320 323 328 322 305 318 348 359 12 225 266 264 246 249 265 275 283 262 164 214 250 200 219 224 194 204 232 260 263 247 261 273 241 242 267 264 272 261 206 199 180 126 100 31 91 135 152 162 163 166 171 170 164 163 166 167 168
11 146 344 351 351 352 360 8 2 328 311 14 2 2 353 330 325 332 333 331 316 299 305 315 320 316 312 319 320 318 317 313 318 319 293 292 308 313 92 88 214 268 265 237 235 266 251 229 293 260 208 239 227 215 241 232 197 213 232 235 233 231 254 276 263 246 247 275 280 204 181 136 74 84 31 22 1 251 158 148 149 156 162 161 159 161 162 163
11 123 356 353 357 5 3 13 23 1 10 32 3 349 347 330 320 327 334 336 309 288 295 304 311 313 313 319 322 322 315 312 315 307 278 284 314 335 99 129 197 278 286 252 228 247 249 233 283 299 268 241 213 169 225 263 233 228 236 237 239 234 235 262 258 235 233 254 264 234 166 103 41 34 10 2 337 310 263 144 133 136 148 152 149 152 156 160
11 9 350 352 1 8 349 353 52 18 15 10 344 320 326 319 314 325 339 341 321 309 304 301 310 317 315 315 314 321 323 313 304 296 294 297 319 337 109 156 253 283 278 278 253 234 251 271 281 288 280 265 115 135 161 179 193 236 251 248 249 245 236 246 250 252 266 260 258 256 208 124 43 21 3 343 321 301 295 45 140 135 135 142 146 148 152 157
7 351 346 355 10 14 348 347 42 20 36 8 332 305 308 312 318 328 335 338 334 334 325 316 319 317 315 320 313 321 341 316 284 278 301 308 324 341 328 188 305 295 256 278 281 211 205 263 279 280 254 195 146 145 164 179 186 215 238 237 236 236 228 236 251 283 303 287 266 240 176 139 15 12 355 326 308 285 248 36 253 140 131 144 153 156 159 160
341 326 347 1 19 31 28 20 9 356 1 352 331 329 329 315 327 332 330 332 330 331 329 323 323 317 313 315 306 308 327 310 270 279 300 306 321 333 325 312 332 308 235 296 327 208 236 261 280 292 260 195 174 180 185 187 198 228 243 230 229 234 230 234 251 259 268 283 282 238 151 119 62 358 333 304 284 227 98 19 307 173 154 154 155 162 168 168
327 329 358 5 24 45 68 57 3 339 346 348 342 355 356 346 345 331 318 308 303 324 327 314 315 316 312 313 311 310 300 259 257 291 302 304 313 322 323 323 330 289 248 286 288 270 279 277 277 293 295 302 314 305 300 175 195 221 242 241 237 234 227 225 244 248 246 286 298 277 109 92 101 53 332 304 183 98 66 2 282 214 189 169 161 164 170 173
341 5 4 356 26 53 75 65 17 353 346 348 342 359 2 354 346 334 322 308 302 325 321 307 309 318 321 325 321 313 299 270 264 280 297 306 311 317 320 319 323 283 270 282 272 262 279 273 270 278 287 307 327 323 325 286 222 215 229 240 233 228 227 224 237 253 272 316 311 313 2 15 72 60 349 357 63 69 80 166 225 215 198 189 176 170 172 176
11 22 2 343 1 40 58 47 19 2 343 342 334 340 351 352 354 346 331 321 325 326 321 310 316 328 333 336 327 303 302 304 289 282 301 311 313 318 320 316 310 293 300 291 261 246 267 273 279 285 284 294 308 300 288 263 247 247 259 263 240 227 227 224 234 265 343 327 291 254 246 280 35 33 342 348 26 50 100 168 198 204 204 202 189 177 175 177
27 87 23 358 335 360 13 9 359 346 334 338 333 335 343 351 3 355 327 313 323 330 333 324 329 336 337 337 330 297 306 318 312 308 320 324 322 325 328 322 314 332 331 322 290 264 279 288 304 304 295 295 290 279 277 267 255 262 283 294 280 258 249 242 249 286 314 273 270 297 282 260 45 17 339 331 327 45 109 161 180 195 209 204 193 184 179 176
30 78 38 7 348 349 347 339 333 326 335 343 341 354 346 344 354 353 334 315 318 329 339 325 327 335 334 332 328 307 308 320 315 315 324 323 319 318 320 314 307 355 340 328 319 303 290 301 330 314 300 296 283 261 265 269 270 280 292 299 295 278 267 260 261 271 261 245 258 280 278 262 64 25 341 324 347 77 99 137 158 180 192 188 186 184 179 177
40 41 360 337 320 342 335 331 325 315 342 357 352 359 348 340 346 343 327 306 303 321 336 328 326 328 325 328 332 326 317 304 290 293 303 308 309 308 313 316 317 334 333 326 333 331 307 327 356 321 299 300 275 238 257 269 278 288 291 293 288 275 265 265 271 274 266 256 258 260 260 19 44 24 343 339 51 68 82 109 121 137 158 169 175 175 176 177
44 35 2 330 321 343 331 330 325 308 349 12 355 349 344 338 341 334 319 291 276 300 324 326 326 326 322 328 339 337 330 320 300 289 287 285 281 278 282 293 309 322 326 320 325 329 315 315 325 309 308 347 55 262 268 263 264 273 288 315 321 311 306 298 290 294 301 297 293 299 19 20 25 21 334 341 48 57 61 72 81 104 125 148 161 164 169 172
28 28 13 328 301 353 341 329 330 326 359 5 341 333 326 320 329 332 322 294 271 288 311 322 324 325 323 332 341 335 322 314 303 294 289 279 267 265 265 272 286 294 292 300 320 339 331 314 316 320 324 349 14 327 283 256 258 283 327 348 345 327 317 313 308 313 313 306 316 4 18 354 19 38 334 333 34 50 53 55 57 81 105 122 138 148 159 163
Height
1536 1534 1532 1531 1530 1528 1526 1525 1523 1522 1520 1518 1517 1515 1514 1512 1511 1510 1508 1507 1506 1505 1504 1502 1501 1500 1499 1498 1497 1495 1494 1493 1492 1492 1492 1491 1490 1489 1490 1491 1491 1492 1492 1493 1494 1495 1495 1496 1496 1495 1496 1495 1495 1493 1493 1493 1494 1493 1490 1486 1480 1474 1471 1467 1465 1467 1465 1462 1464 1468 1468 1465 1462 1461 1462 1463 1463 1462 1465 1465 1465 1469 1471 1474 1476 1474 1475 1476
1535 1533 1532 1530 1529 1527 1525 1524 1522 1520 1519 1517 1515 1514 1512 1511 1510 1509 1507 1506 1505 1504 1502 1501 1500 1499 1498 1497 1495 1494 1492 1491 1490 1490 1489 1488 1488 1488 1489 1490 1491 1491 1492 1493 1494 1494 1495 1495 1495 1495 1494 1493 1492 1492 1491 1491 1491 1488 1484 1482 1476 1470 1468 1466 1466 1470 1472 1470 1470 1470 1470 1469 1466 1465 1464 1462 1460 1461 1463 1462 1463 1465 1468 1472 1474 1473 1474 1476
1534 1533 1531 1529 1528 1526 1524 1523 1521 1519 1517 1516 1514 1513 1511 1510 1509 1507 1506 1504 1503 1502 1501 1500 1499 1498 1497 1495 1494 1493 1491 1490 1489 1489 1487 1486 1487 1488 1489 1490 1490 1490 1491 1492 1493 1493 1493 1493 1494 1493 1493 1491 1490 1490 1489 1489 1488 1486 1482 1478 1472 1469 1468 1468 1470 1474 1476 1475 1472 1470 1471 1471 1469 1468 1468 1465 1462 1461 1460 1460 1460 1461 1465 1469 1471 1473 1474 1475
1534 1532 1530 1528 1527 1525 1523 1521 1520 1518 1516 1514 1513 1511 1510 1509 1507 1506 1505 1503 1502 1501 1500 1499 1498 1497 1495 1494 1493 1492 1491 1489 1488 1488 1486 1486 1488 1488 1489 1489 1490 1490 1491 1491 1491 1492 1492 1492 1492 1492 1492 1488 1488 1489 1487 1486 1486 1483 1480 1475 1470 1471 1474 1474 1476 1477 1478 1478 1475 1472 1473 1472 1470 1470 1470 1468 1465 1460 1457 1458 1460 1461 1464 1466 1469 1472 1473 1474
1533 1531 1529 1527 1525 1524 1522 1520 1519 1517 1515 1513 1512 1510 1509 1507 1506 1505 1503 1502 1501 1500 1499 1498 1497 1496 1494 1494 1492 1492 1492 1487 1485 1487 1486 1487 1487 1488 1488 1489 1489 1490 1490 1491 1491 1491 1491 1492 1492 1491 1490 1485 1485 1487 1484 1484 1485 1481 1478 1476 1473 1476 1479 1478 1479 1480 1481 1480 1477 1475 1473 1472 1471 1471 1470 1468 1466 1460 1457 1461 1463 1463 1464 1462 1464 1468 1471 1471
1532 1530 1528 1526 1524 1522 1521 1519 1518 1516 1514 1512 1510 1509 1508 1506 1505 1503 1502 1501 1500 1499 1498 1497 1496 1495 1493 1493 1492 1493 1493 1486 1485 1488 1486 1486 1487 1487 1488 1488 1489 1489 1490 1491 1491 1491 1491 1491 1490 1489 1487 1484 1483 1483 1482 1483 1485 1482 1477 1477 1478 1480 1481 1480 1481 1482 1482 1481 1479 1477 1474 1473 1472 1469 1468 1467 1465 1462 1461 1464 1464 1464 1464 1462 1461 1464 1468 1469
1531 1529 1527 1525 1523 1521 1520 1518 1516 1515 1512 1511 1509 1508 1506 1505 1503 1502 1501 1500 1499 1498 1497 1496 1495 1494 1493 1492 1492 1493 1492 1489 1487 1487 1486 1486 1486 1487 1487 1487 1488 1489 1490 1491 1491 1491 1490 1491 1489 1487 1485 1482 1482 1482 1482 1484 1485 1483 1478 1477 1480 1482 1482 1481 1482 1482 1482 1481 1479 1478 1476 1474 1471 1468 1466 1465 1464 1465 1464 1464 1465 1464 1464 1464 1463 1463 1466 1468
1531 1528 1526 1524 1522 1520 1519 1517 1515 1513 1511 1509 1508 1506 1504 1503 1502 1500 1499 1498 1498 1497 1496 1495 1494 1493 1492 1492 1493 1492 1490 1489 1487 1485 1485 1486 1486 1487 1487 1487 1488 1488 1490 1490 1490 1490 1490 1489 1488 1487 1484 1481 1482 1483 1484 1485 1482 1481 1478 1477 1480 1482 1482 1482 1482 1481 1481 1480 1479 1478 1475 1473 1470 1468 1465 1462 1464 1465 1464 1464 1465 1464 1464 1465 1464 1463 1465 1467
1530 1528 1525 1523 1521 1519 1518 1516 1514 1512 1509 1508 1506 1504 1503 1501 1500 1499 1498 1497 1496 1495 1494 1494 1493 1492 1492 1492 1494 1491 1486 1486 1486 1485 1485 1486 1486 1486 1487 1488 1488 1488 1489 1489 1490 1490 1489 1488 1488 1487 1485 1483 1484 1483 1484 1483 1478 1478 1479 1479 1481 1481 1480 1481 1480 1480 1479 1478 1478 1475 1472 1471 1471 1470 1462 1459 1463 1464 1463 1464 1464 1464 1463 1463 1463 1463 1465 1466
1529 1527 1525 1522 1520 1518 1516 1515 1512 1510 1508 1506 1504 1502 1501 1500 1499 1497 1496 1495 1495 1494 1493 1493 1492 1492 1492 1493 1494 1490 1485 1485 1485 1484 1485 1485 1485 1486 1487 1487 1487 1488 1489 1489 1489 1489 1489 1488 1488 1489 1487 1485 1484 1483 1484 1483 1478 1480 1481 1480 1480 1479 1478 1479 1478 1478 1477 1476 1475 1473 1471 1468 1471 1469 1459 1457 1461 1462 1463 1463 1463 1463 1462 1462 1462 1462 1463 1464
1528 1526 1524 1521 1519 1517 1515 1513 1510 1508 1506 1504 1503 1501 1499 1498 1497 1496 1495 1494 1493 1493 1492 1492 1491 1491 1492 1493 1493 1488 1485 1485 1484 1484 1484 1484 1484 1485 1485 1485 1486 1487 1488 1488 1488 1488 1489 1488 1488 1489 1486 1484 1483 1483 1483 1482 1481 1482 1481 1479 1478 1476 1475 1475 1475 1475 1474 1473 1472 1472 1469 1466 1467 1463 1456 1458 1460 1459 1461 1460 1460 1461 1461 1461 1461 1461 1461 1462
1527 1525 1523 1520 1518 1516 1513 1511 1508 1506 1504 1503 1501 1499 1498 1497 1496 1495 1494 1493 1492 1491 1491 1490 1489 1489 1491 1492 1490 1486 1484 1484 1483 1483 1482 1482 1484 1484 1483 1483 1484 1486 1486 1487 1487 1488 1488 1488 1489 1487 1485 1484 1482 1480 1481 1482 1482 1481 1480 1478 1474 1472 1470 1469 1470 1471 1470 1469 1469 1471 1467 1462 1459 1456 1455 1460 1460 1458 1458 1458 1458 1458 1459 1460 1460 1460 1459 1460
1527 1524 1521 1519 1517 1514 1512 1509 1507 1505 1503 1502 1500 1499 1497 1496 1495 1494 1493 1492 1491 1490 1490 1489 1488 1488 1490 1489 1486 1484 1484 1483 1482 1481 1481 1482 1483 1483 1482 1482 1483 1484 1485 1486 1486 1487 1487 1487 1488 1487 1485 1485 1482 1480 1481 1481 1482 1479 1477 1475 1471 1468 1463 1460 1465 1467 1467 1466 1466 1470 1465 1455 1449 1450 1453 1456 1457 1457 1454 1453 1455 1456 1457 1457 1458 1458 1457 1458
1526 1523 1521 1518 1515 1513 1510 1508 1506 1505 1503 1501 1500 1498 1497 1495 1494 1493 1492 1490 1490 1490 1489 1488 1487 1488 1490 1487 1483 1483 1483 1482 1482 1481 1481 1482 1482 1483 1482 1482 1482 1483 1483 1485 1486 1486 1486 1487 1488 1487 1486 1485 1482 1482 1480 1478 1478 1476 1474 1471 1468 1466 1457 1455 1463 1464 1464 1462 1463 1467 1462 1451 1445 1445 1448 1449 1452 1454 1451 1449 1451 1452 1454 1455 1455 1456 1456 1456
1525 1522 1519 1517 1514 1512 1509 1508 1506 1504 1503 1501 1499 1498 1496 1494 1493 1492 1490 1489 1489 1488 1487 1486 1487 1488 1489 1485 1483 1483 1482 1482 1482 1482 1482 1482 1483 1483 1483 1482 1482 1482 1482 1483 1484 1485 1485 1486 1486 1485 1483 1483 1483 1481 1477 1473 1471 1471 1472 1465 1458 1458 1454 1453 1459 1461 1461 1459 1459 1462 1458 1449 1445 1444 1445 1446 1446 1448 1448 1447 1447 1448 1450 1452 1453 1454 1454 1453
1524 1521 1518 1516 1513 1511 1509 1507 1505 1504 1502 1500 1499 1497 1495 1494 1492 1491 1489 1489 1488 1486 1486 1487 1487 1488 1487 1484 1483 1482 1482 1482 1482 1481 1482 1481 1482 1483 1482 1482 1482 1482 1482 1482 1483 1484 1484 1485 1484 1483 1481 1481 1479 1476 1473 1469 1465 1464 1468 1463 1454 1454 1454 1452 1455 1457 1459 1457 1456 1457 1454 1448 1443 1442 1443 1443 1443 1443 1444 1444 1443 1444 1447 1449 1450 1451 1452 1451
1523 1520 1517 1515 1512 1510 1509 1507 1505 1504 1502 1500 1499 1496 1494 1493 1491 1490 1489 1488 1487 1486 1488 1488 1488 1488 1485 1482 1482 1482 1482 1482 1481 1480 1480 1480 1480 1481 1481 1482 1481 1481 1481 1481 1482 1482 1483 1482 1481 1480 1478 1477 1474 1473 1473 1468 1460 1455 1458 1460 1456 1455 1456 1455 1454 1454 1456 1456 1455 1453 1451 1447 1443 1441 1441 1440 1441 1441 1441 1441 1439 1440 1443 1446 1447 1448 1449 1448
1522 1519 1517 1514 1511 1510 1508 1506 1505 1503 1501 1500 1498 1496 1494 1492 1490 1489 1489 1488 1487 1487 1487 1487 1488 1485 1481 1481 1482 1481 1481 1480 1479 1478 1478 1478 1478 1479 1480 1480 1481 1481 1480 1480 1479 1479 1480 1478 1477 1475 1473 1473 1471 1471 1471 1464 1456 1454 1457 1459 1458 1455 1455 1456 1454 1452 1455 1456 1454 1452 1449 1446 1442 1441 1441 1439 1439 1438 1437 1438 1437 1436 1439 1442 1444 1446 1446 1446
1521 1518 1516 1513 1511 1509 1508 1506 1505 1503 1501 1500 1498 1495 1493 1491 1490 1489 1489 1489 1488 1487 1484 1486 1486 1482 1479 1481 1482 1481 1479 1478 1477 1477 1477 1476 1476 1477 1478 1479 1479 1479 1477 1475 1473 1474 1476 1474 1474 1473 1469 1467 1466 1465 1464 1459 1457 1460 1462 1462 1460 1457 1454 1453 1452 1453 1456 1456 1453 1450 1448 1444 1441 1439 1438 1438 1437 1436 1435 1435 1434 1433 1434 1438 1440 1442 1443 1443
1520 1517 1515 1513 1510 1509 1507 1506 1504 1503 1501 1499 1497 1495 1494 1494 1490 1489 1489 1489 1489 1487 1485 1486 1486 1483 1482 1482 1481 1480 1478 1477 1476 1476 1476 1475 1475 1476 1476 1477 1477 1476 1473 1470 1467 1468 1471 1470 1467 1466 1463 1461 1461 1460 1460 1460 1462 1463 1464 1463 1461 1458 1454 1451 1452 1452 1455 1456 1451 1447 1446 1443 1439 1436 1435 1436 1435 1433 1432 1432 1431 1428 1429 1433 1435 1437 1439 1440
1519 1517 1515 1512 1510 1509 1507 1506 1504 1503 1501 1499 1499 1498 1499 1498 1495 1493 1492 1489 1487 1487 1486 1485 1484 1483 1482 1481 1480 1479 1478 1476 1475 1475 1475 1474 1475 1475 1473 1473 1473 1470 1468 1466 1465 1466 1470 1467 1461 1458 1458 1458 1459 1458 1459 1461 1463 1463 1463 1462 1459 1456 1452 1449 1450 1451 1453 1454 1448 1444 1444 1441 1437 1435 1433 1433 1432 1429 1428 1428 1427 1425 1426 1428 1431 1434 1436 1437
1518 1516 1513 1511 1510 1508 1507 1506 1504 1503 1502 1501 1501 1501 1501 1501 1499 1499 1496 1491 1487 1486 1485 1484 1483 1482 1481 1480 1479 1478 1477 1475 1472 1473 1473 1473 1475 1472 1469 1469 1468 1464 1462 1463 1464 1465 1466 1462 1457 1456 1456 1457 1458 1457 1459 1460 1462 1461 1460 1459 1456 1451 1449 1447 1447 1448 1451 1451 1446 1442 1441 1437 1434 1431 1430 1430 1428 1425 1425 1425 1425 1424 1423 1424 1427 1430 1432 1433
1518 1515 1513 1511 1509 1508 1507 1505 1504 1503 1502 1502 1502 1502 1501 1501 1499 1499 1498 1494 1487 1484 1483 1483 1482 1481 1480 1479 1478 1477 1476 1473 1472 1471 1471 1472 1472 1471 1468 1466 1464 1461 1460 1460 1461 1462 1460 1455 1452 1453 1455 1456 1456 1457 1459 1460 1460 1460 1460 1458 1453 1448 1448 1446 1443 1444 1447 1447 1445 1442 1440 1434 1430 1428 1425 1425 1424 1423 1422 1422 1422 1421 1420 1421 1424 1426 1428 1430
1517 1514 1512 1510 1509 1508 1506 1505 1505 1503 1502 1502 1502 1501 1500 1499 1499 1498 1497 1493 1486 1483 1482 1481 1481 1480 1480 1479 1477 1476 1474 1473 1471 1470 1470 1470 1470 1470 1467 1464 1462 1460 1458 1457 1457 1456 1453 1449 1450 1452 1454 1455 1455 1456 1458 1460 1461 1459 1459 1458 1453 1448 1447 1445 1443 1444 1445 1445 1442 1442 1439 1431 1426 1425 1421 1421 1422 1420 1418 1417 1417 1416 1416 1418 1421 1422 1424 1426
1516 1513 1511 1509 1508 1507 1506 1505 1505 1503 1503 1502 1502 1501 1499 1499 1498 1497 1497 1491 1483 1480 1480 1480 1479 1479 1478 1477 1476 1475 1473 1471 1470 1469 1469 1469 1468 1467 1464 1462 1461 1459 1455 1453 1454 1452 1449 1448 1450 1451 1452 1453 1453 1454 1455 1457 1460 1458 1456 1455 1453 1449 1446 1445 1446 1446 1445 1442 1436 1436 1437 1426 1417 1417 1415 1415 1415 1412 1412 1412 1410 1410 1412 1414 1416 1418 1421 1423
1514 1512 1510 1508 1508 1507 1506 1506 1505 1504 1503 1503 1502 1500 1498 1498 1496 1497 1497 1486 1475 1476 1478 1478 1477 1477 1476 1476 1475 1474 1470 1468 1467 1467 1467 1467 1467 1466 1463 1460 1459 1457 1454 1452 1452 1449 1447 1448 1450 1450 1451 1452 1453 1452 1452 1455 1459 1455 1448 1448 1449 1447 1445 1445 1446 1447 1445 1438 1429 1430 1434 1426 1414 1410 1407 1405 1406 1404 1404 1405 1404 1405 1406 1408 1411 1413 1417 1419
1513 1511 1509 1508 1507 1507 1507 1506 1505 1504 1503 1503 1501 1498 1497 1497 1495 1497 1493 1479 1473 1477 1478 1476 1477 1476 1475 1475 1474 1472 1468 1466 1465 1465 1465 1465 1465 1466 1463 1458 1457 1456 1455 1457 1455 1449 1447 1449 1451 1452 1452 1453 1452 1451 1450 1453 1455 1448 1441 1444 1447 1445 1445 1444 1444 1444 1438 1432 1427 1427 1432 1429 1417 1409 1402 1396 1395 1397 1397 1397 1397 1399 1400 1402 1405 1408 1412 1415
1512 1510 1508 1507 1507 1507 1506 1506 1505 1504 1504 1502 1499 1498 1497 1495 1494 1496 1490 1480 1478 1479 1477 1477 1477 1475 1474 1473 1472 1470 1468 1467 1465 1463 1463 1464 1463 1464 1462 1457 1457 1456 1457 1462 1459 1450 1449 1452 1452 1452 1453 1451 1448 1447 1447 1448 1448 1443 1440 1444 1446 1446 1445 1443 1442 1438 1433 1433 1431 1425 1427 1428 1417 1407 1402 1397 1393 1391 1390 1390 1389 1391 1394 1396 1400 1404 1407 1411
1511 1509 1508 1507 1507 1506 1506 1505 1504 1503 1502 1499 1498 1497 1494 1494 1495 1492 1485 1482 1481 1477 1476 1477 1475 1474 1473 1470 1468 1467 1467 1466 1465 1463 1462 1462 1461 1461 1460 1458 1458 1456 1456 1459 1456 1449 1448 1450 1451 1451 1451 1448 1443 1442 1443 1444 1443 1441 1443 1445 1444 1444 1444 1443 1442 1436 1434 1438 1434 1424 1421 1421 1413 1403 1400 1397 1392 1387 1383 1383 1383 1384 1388 1392 1395 1399 1403 1407
1510 1509 1508 1507 1507 1506 1505 1505 1503 1502 1500 1498 1497 1495 1493 1495 1493 1485 1481 1483 1481 1477 1476 1476 1475 1473 1471 1468 1466 1465 1464 1464 1463 1462 1460 1459 1460 1460 1458 1457 1458 1456 1454 1453 1451 1447 1445 1448 1452 1451 1449 1446 1443 1441 1442 1444 1444 1444 1446 1445 1442 1440 1439 1440 1437 1435 1439 1438 1428 1420 1417 1418 1413 1405 1397 1388 1381 1379 1378 1377 1378 1379 1383 1387 1391 1395 1398 1403
1510 1508 1508 1507 1507 1506 1506 1505 1503 1501 1499 1498 1496 1494 1495 1493 1484 1480 1483 1482 1480 1479 1476 1475 1475 1472 1469 1469 1467 1464 1462 1461 1460 1460 1457 1455 1456 1456 1456 1457 1456 1455 1452 1448 1446 1443 1442 1445 1447 1446 1445 1445 1445 1443 1442 1443 1444 1445 1446 1443 1442 1438 1436 1438 1433 1434 1443 1436 1419 1413 1412 1415 1413 1404 1394 1380 1370 1371 1372 1371 1371 1374 1377 1381 1386 1390 1394 1399
1509 1508 1508 1507 1507 1506 1506 1505 1503 1501 1499 1497 1494 1494 1493 1486 1480 1483 1484 1480 1483 1483 1478 1477 1476 1472 1469 1468 1466 1464 1463 1461 1458 1457 1456 1454 1452 1450 1451 1452 1453 1453 1447 1441 1441 1439 1436 1436 1437 1438 1440 1441 1442 1440 1440 1441 1442 1444 1442 1442 1443 1437 1436 1439 1434 1432 1436 1426 1413 1409 1407 1407 1405 1398 1391 1379 1369 1366 1366 1365 1365 1368 1372 1376 1381 1386 1390 1395
1509 1508 1508 1507 1507 1506 1505 1504 1502 1500 1498 1495 1494 1494 1489 1484 1483 1486 1483 1481 1486 1484 1478 1478 1475 1473 1470 1467 1464 1463 1463 1461 1457 1456 1455 1454 1451 1447 1446 1447 1447 1450 1447 1441 1441 1439 1433 1427 1429 1434 1434 1435 1438 1436 1435 1434 1436 1438 1437 1438 1438 1435 1439 1442 1433 1429 1426 1413 1404 1402 1402 1403 1398 1390 1383 1377 1371 1367 1365 1363 1362 1363 1368 1373 1378 1382 1387 1392
1509 1508 1508 1507 1507 1506 1504 1503 1501 1499 1497 1495 1494 1490 1487 1487 1486 1485 1484 1484 1485 1482 1479 1479 1475 1472 1468 1465 1465 1465 1466 1462 1455 1455 1454 1451 1451 1447 1443 1444 1444 1446 1447 1446 1444 1441 1437 1429 1427 1430 1430 1431 1434 1431 1430 1429 1432 1434 1430 1431 1431 1428 1435 1437 1427 1419 1413 1405 1399 1398 1402 1403 1392 1379 1369 1365 1365 1364 1363 1362 1361 1362 1365 1370 1375 1379 1384 1389
1508 1508 1508 1507 1507 1506 1504 1502 1500 1498 1496 1495 1493 1485 1486 1490 1486 1485 1488 1489 1487 1484 1482 1479 1476 1472 1465 1463 1466 1467 1469 1465 1456 1455 1452 1447 1448 1446 1442 1443 1444 1445 1448 1449 1445 1441 1437 1429 1426 1428 1429 1430 1430 1428 1429 1430 1431 1430 1426 1428 1426 1420 1423 1427 1421 1415 1413 1415 1412 1404 1398 1388 1375 1362 1353 1354 1357 1356 1357 1357 1357 1360 1362 1367 1372 1375 1381 1386
1508 1507 1508 1507 1507 1505 1503 1501 1499 1498 1496 1495 1489 1484 1487 1491 1487 1487 1491 1491 1490 1488 1485 1480 1474 1471 1468 1466 1465 1465 1468 1466 1458 1454 1450 1446 1445 1444 1443 1444 1445 1446 1448 1449 1446 1440 1435 1429 1426 1428 1427 1427 1427 1426 1427 1429 1430 1429 1427 1425 1420 1416 1419 1422 1421 1417 1419 1423 1415 1404 1393 1378 1367 1359 1349 1349 1351 1350 1351 1352 1354 1356 1358 1363 1367 1372 1378 1383
1508 1507 1508 1508 1507 1504 1502 1501 1499 1497 1496 1493 1490 1489 1491 1491 1490 1491 1492 1492 1492 1489 1489 1486 1476 1472 1473 1470 1466 1464 1464 1462 1457 1454 1452 1448 1445 1443 1443 1446 1450 1451 1450 1450 1447 1440 1437 1432 1427 1427 1426 1425 1428 1426 1425 1426 1428 1429 1427 1421 1417 1419 1420 1423 1427 1423 1420 1417 1403 1391 1385 1372 1366 1363 1355 1351 1349 1348 1349 1349 1351 1354 1355 1359 1364 1370 1376 1380
1507 1507 1508 1507 1506 1504 1502 1500 1498 1498 1496 1492 1491 1494 1494 1493 1493 1494 1494 1493 1492 1489 1489 1488 1479 1475 1477 1475 1469 1465 1466 1464 1457 1457 1457 1451 1446 1444 1443 1447 1452 1452 1451 1454 1449 1441 1440 1436 1427 1425 1426 1424 1426 1428 1426 1425 1425 1425 1423 1421 1422 1426 1424 1424 1430 1428 1421 1414 1396 1380 1372 1364 1362 1364 1361 1354 1347 1348 1350 1349 1351 1352 1353 1356 1362 1368 1374 1378
1507 1507 1507 1506 1505 1503 1501 1500 1498 1497 1494 1491 1492 1494 1495 1496 1495 1495 1495 1494 1491 1488 1487 1484 1480 1478 1477 1476 1472 1468 1470 1467 1460 1460 1460 1452 1446 1444 1444 1449 1453 1453 1452 1453 1449 1441 1441 1441 1430 1424 1425 1424 1424 1425 1423 1422 1424 1425 1424 1423 1423 1426 1428 1426 1425 1425 1422 1415 1399 1378 1366 1364 1366 1367 1365 1358 1353 1352 1352 1351 1351 1352 1352 1355 1361 1366 1372 1377
1508 1507 1507 1506 1504 1502 1501 1500 1498 1497 1494 1494 1496 1497 1497 1498 1496 1495 1496 1494 1491 1489 1485 1482 1483 1482 1477 1474 1474 1473 1472 1468 1464 1464 1461 1454 1448 1444 1446 1452 1454 1453 1450 1448 1447 1441 1439 1443 1436 1422 1420 1423 1422 1420 1418 1417 1420 1424 1425 1425 1423 1425 1433 1433 1424 1419 1418 1416 1403 1380 1367 1369 1368 1365 1364 1363 1360 1357 1354 1354 1354 1353 1354 1356 1361 1366 1370 1375
1508 1507 1507 1507 1504 1502 1501 1500 1500 1500 1497 1496 1499 1500 1500 1500 1497 1495 1495 1494 1492 1489 1487 1485 1483 1482 1478 1475 1476 1477 1474 1469 1465 1464 1459 1452 1449 1446 1448 1453 1454 1452 1448 1443 1442 1439 1437 1440 1437 1425 1418 1418 1417 1416 1418 1419 1418 1420 1422 1423 1421 1422 1428 1430 1421 1411 1409 1410 1398 1375 1370 1376 1371 1364 1364 1363 1361 1358 1354 1355 1356 1355 1357 1359 1362 1367 1370 1374
1509 1508 1509 1507 1504 1503 1501 1500 1502 1503 1500 1500 1502 1503 1503 1501 1498 1496 1494 1493 1491 1489 1487 1485 1481 1480 1478 1478 1478 1479 1478 1471 1465 1462 1456 1449 1448 1448 1448 1450 1451 1450 1448 1442 1436 1435 1435 1435 1433 1426 1417 1415 1415 1415 1418 1420 1420 1423 1424 1422 1421 1421 1425 1428 1422 1412 1407 1402 1386 1368 1370 1377 1370 1365 1367 1363 1360 1358 1353 1354 1356 1355 1359 1361 1363 1367 1370 1374
1512 1511 1510 1508 1505 1504 1501 1499 1501 1502 1502 1505 1506 1504 1503 1502 1499 1496 1494 1493 1491 1489 1487 1483 1481 1480 1479 1479 1480 1481 1481 1474 1464 1460 1455 1448 1446 1447 1447 1448 1448 1447 1446 1441 1435 1434 1435 1433 1430 1424 1414 1411 1415 1417 1419 1420 1422 1425 1423 1421 1422 1422 1423 1425 1420 1416 1413 1400 1380 1367 1369 1377 1372 1366 1366 1364 1360 1357 1353 1354 1355 1355 1359 1362 1364 1367 1370 1374
1513 1513 1511 1509 1506 1504 1503 1505 1505 1504 1504 1506 1505 1504 1503 1502 1501 1498 1496 1494 1493 1490 1487 1483 1480 1479 1479 1480 1481 1481 1482 1477 1465 1458 1455 1451 1446 1445 1445 1445 1445 1446 1444 1440 1438 1437 1435 1431 1429 1425 1416 1412 1416 1419 1420 1421 1423 1424 1421 1420 1421 1420 1422 1422 1417 1419 1417 1397 1375 1365 1364 1373 1375 1367 1366 1366 1361 1356 1353 1354 1355 1356 1358 1362 1364 1367 1370 1373
1513 1512 1511 1510 1508 1506 1508 1512 1512 1509 1507 1507 1505 1503 1502 1501 1501 1501 1498 1496 1494 1492 1489 1485 1481 1480 1480 1479 1479 1478 1479 1478 1471 1461 1456 1453 1448 1444 1443 1442 1442 1444 1444 1441 1440 1438 1433 1428 1427 1425 1421 1418 1418 1419 1419 1420 1422 1425 1424 1421 1420 1418 1418 1416 1413 1415 1409 1388 1374 1368 1364 1367 1371 1369 1368 1367 1361 1357 1356 1354 1355 1356 1358 1361 1364 1366 1369 1372
1514 1513 1512 1512 1510 1509 1512 1516 1515 1512 1511 1509 1506 1503 1502 1501 1500 1500 1498 1495 1493 1492 1490 1486 1482 1481 1479 1477 1478 1478 1475 1474 1471 1464 1458 1456 1450 1445 1442 1441 1440 1442 1443 1441 1439 1437 1433 1427 1423 1423 1421 1418 1418 1417 1417 1420 1422 1422 1421 1418 1416 1413 1410 1410 1409 1406 1401 1392 1382 1378 1377 1374 1371 1369 1369 1367 1363 1361 1359 1356 1356 1356 1357 1360 1363 1366 1368 1371
1517 1518 1519 1516 1513 1512 1513 1515 1515 1514 1513 1512 1509 1505 1504 1502 1500 1500 1498 1495 1494 1492 1489 1483 1481 1480 1477 1476 1479 1477 1472 1469 1466 1461 1459 1455 1450 1445 1442 1440 1439 1441 1441 1439 1436 1435 1433 1426 1420 1420 1419 1415 1414 1414 1413 1416 1419 1419 1416 1412 1410 1408 1406 1408 1406 1399 1400 1401 1389 1382 1387 1385 1374 1369 1370 1369 1366 1364 1361 1358 1357 1356 1358 1360 1362 1364 1368 1370
1519 1521 1523 1522 1519 1517 1516 1516 1517 1516 1514 1513 1510 1507 1505 1504 1503 1504 1501 1497 1494 1492 1488 1483 1480 1478 1475 1476 1478 1477 1473 1467 1460 1457 1457 1454 1450 1447 1442 1439 1439 1440 1440 1438 1435 1433 1431 1425 1419 1417 1416 1412 1412 1412 1410 1412 1415 1415 1413 1411 1410 1410 1409 1410 1408 1404 1407 1404 1390 1382 1386 1383 1375 1370 1369 1368 1367 1364 1361 1359 1358 1358 1359 1360 1361 1363 1366 1369
1522 1522 1523 1522 1522 1521 1520 1519 1518 1516 1514 1513 1510 1508 1508 1506 1505 1505 1504 1501 1496 1491 1489 1486 1481 1477 1474 1474 1475 1476 1475 1470 1463 1458 1456 1456 1455 1450 1444 1439 1439 1440 1440 1438 1435 1432 1430 1424 1418 1417 1414 1411 1411 1411 1410 1411 1412 1412 1413 1413 1412 1412 1411 1410 1409 1409 1408 1401 1393 1390 1386 1380 1375 1371 1368 1367 1365 1362 1361 1359 1358 1358 1358 1359 1361 1362 1364 1368
1525 1525 1524 1523 1521 1521 1520 1519 1517 1514 1513 1512 1510 1509 1510 1508 1506 1506 1504 1503 1499 1492 1488 1487 1482 1477 1475 1471 1470 1471 1472 1472 1470 1464 1459 1459 1457 1451 1444 1441 1439 1440 1441 1438 1435 1433 1431 1424 1419 1418 1415 1410 1409 1410 1410 1411 1414 1415 1413 1410 1407 1405 1405 1406 1406 1404 1400 1396 1393 1389 1381 1374 1371 1368 1367 1366 1363 1362 1361 1359 1358 1357 1357 1358 1360 1361 1364 1367
1526 1526 1526 1524 1521 1520 1519 1517 1516 1513 1511 1512 1513 1512 1511 1509 1509 1508 1503 1499 1498 1493 1488 1487 1484 1478 1473 1469 1466 1465 1464 1465 1466 1461 1458 1459 1456 1450 1446 1442 1440 1442 1442 1440 1438 1435 1432 1425 1419 1418 1417 1411 1408 1409 1409 1410 1413 1414 1411 1405 1402 1402 1402 1402 1402 1399 1397 1393 1386 1379 1375 1372 1370 1368 1368 1366 1364 1364 1363 1360 1358 1357 1357 1358 1359 1361 1364 1367
1527 1526 1526 1525 1521 1519 1518 1516 1514 1512 1512 1514 1516 1515 1513 1511 1510 1510 1505 1497 1494 1493 1490 1488 1485 1480 1474 1468 1464 1464 1462 1460 1458 1453 1452 1453 1450 1448 1447 1444 1442 1444 1444 1441 1438 1434 1433 1428 1421 1421 1420 1411 1406 1407 1408 1409 1411 1411 1407 1404 1403 1404 1402 1400 1397 1395 1392 1389 1383 1379 1377 1374 1371 1370 1371 1369 1367 1366 1364 1363 1362 1359 1359 1359 1360 1362 1365 1367